Location: Unspecified
(0.0000°N, 0.0000°E)
Time: 03:49:20
(UTC+00:00)

Envisat - Pass Details

Date: 02 September 2018
Orbit: 764 x 766 km, 98.1° (Epoch: 31 May)

Event Time Altitude Azimuth Distance (km) Brightness Sun altitude
Exits shadow 19:20:19 35° 130° (SE) 1,230 3.6 -20.0°
Maximum altitude 19:22:05 50° 78° (ENE) 971 3.1 -20.4°
Drops below altitude 10° 19:26:58 10° 3° (N) 2,294 5.5 -21.6°
Sets 19:29:26 0° 358° (N) 3,265 6.4 -22.2°
